User: anonymous   Login
Location: Unspecified
(0.0000°N, 0.0000°E)
Time: 20:40:49
(UTC+00:00)
Language:

Gonets-D1 - Orbit

View from above orbital plane
View from above orbital plane
View from above satellite
View from above satellite

Ground track
Ground track

The orbit data is extracted from the following two-line orbital elements,

1 23788U 96009B   17172.73842701 +.00000038 +00000-0 +15372-3 0  9994
2 23788 082.5713 244.5425 0005462 324.1051 035.9673 12.63138968983892
Epoch (UTC): 21 June 2017 17:43:20
Eccentricity: 0.0005462
inclination: 82.5713°
perigee height: 1406 km
apogee height: 1414 km
right ascension of ascending node: 244.5425°
argument of perigee: 324.1051°
revolutions per day: 12.63138968
mean anomaly at epoch: 35.9673°
orbit number at epoch: 98389

The dashed part of the orbit path shows where the satellite is in the earth's shadow,  

DLR